Location: Kapla
(46.2483°N, 15.0094°E)
Time: 21:05:39
(UTC+00:00)

Cosmos 2333 Rocket - Pass Details

Date: 03 March 2021
Orbit: 837 x 864 km, 70.8° (Epoch: 20 April)

Event Time Altitude Azimuth Distance (km) Brightness Sun altitude
Rises 18:46:56 0° 196° (SSW) 3,385 5.4 -21.0°
Reaches altitude 10° 18:49:22 10° 194° (SSW) 2,458 4.6 -21.5°
Maximum altitude 18:54:58 68° 112° (ESE) 914 2.1 -22.4°
Drops below altitude 10° 19:00:38 10° 31° (NNE) 2,492 4.5 -23.3°
Sets 19:03:07 0° 29° (NNE) 3,437 5.2 -23.7°
